STARLINK-1207 (45380 NORAD) Tracking and Keplerian Element Data

This shows tracking and keplerian element data for the satellite.

Feedback or suggestion? Click here.




ElementValue
Catalog45380
NameSTARLINK-1207
Epoch Orbit1114
Epoch Day145.41667824
Epoch Year2020
RAAN286.7643
Inclination52.9995
Eccentricity0.0002417
Argument of Perigee310.4091
Mean Anonmoly269.3267
Mean Motion15.58824668
Decay Rate0.03354505
L11 45380U 20019W 20145.41667824 .03354505 00000-0 37221-1 0 9993
L22 45380 52.9995 286.7643 0002417 310.4091 269.3267 15.58824668 11144

Live tracking and technical data element details for STARLINK-1207 (NORAD 45380). STARLINK-1207 can be tracked NOW for your location showing map with azimuth and elevation plus other details from your city location.

Track the satellite on the map from your city or location and see movement details for azimuth, elevation, latitude, longitude, range, height, and movement on the map or in text.







IsCatalogInMostPopularTable: catalog: 45380, numindb: 13
Update: records affected: 1



GetName: 45380 STARLINK-1207

Hit Count: updated at: Tue, 26 May 2020 02:28:02 GMT